Home > Time Zones > World Clock > Weather > China > Sian > Past weeks

Flag Weather past 2 weeks in Sian, Shaanxi, China

Now
37 °F

Fog.


Feels Like: 35 °F
Forecast: 38 / 53 °F
Wind: 3 mph from North

Location: Xian/Xianyang

Current Time: Nov 28, 2014 at 10:05:04 AM

Latest Report: Nov 28, 2014 at 9:00 AM


Visibility: 2 mi

Pressure: 30.15 "Hg

Humidity: 93%

Dew point: 36 °F

Location of SianLocation

Historic Weather in Sian — Graph

°F

Sian temperature yesterday

Maximum temperature yesterday: 50 °F (at 1:00 PM)
Minimum temperature yesterday: 37 °F (at 11:00 PM)
Average temperature yesterday: 44 °F

Past Weeks' High & Low Weather Summary

 TemperatureHumidityPressure
High63 °F (Nov 19, 2:00 PM)100% (Nov 23, 8:00 PM)30.51 "Hg (Nov 23, 8:00 PM)
Low27 °F (Nov 14, 6:00 AM)28% (Nov 13, 1:00 PM)29.92 "Hg (Nov 26, 2:00 AM)
Average43 °F78%30.22 "Hg
* Reported Nov 13 8:00 AM — Nov 28 8:00 AM, Sian, Weather by CustomWeather, © 2014

Note: Actual official high and low records may vary slightly from our data, if they occured in-between our weather recording intervals... More about our weather records

Advertising

Sian weather history for previous 24 hours

 ConditionsComfort  
Time TempWeatherWind HumidityBarometerVisibility
8:00 AM
Nov 28
34 °FFog.3 mph93%30.15 "Hg2 mi
7:00 AM36 °FFog.3 mph93%30.15 "Hg2 mi
6:00 AM36 °FFog.1 mph93%30.15 "Hg2 mi
5:00 AM34 °FFog.1 mph93%30.15 "Hg2 mi
4:00 AM34 °FFog.No wind93%30.15 "Hg2 mi
3:00 AM32 °FIce fog.1 mph93%30.15 "Hg2 mi
2:00 AM32 °FIce fog.1 mph93%30.15 "Hg2 mi
1:00 AM36 °FFog.3 mph93%30.18 "Hg2 mi
12:00 AM36 °FFog.1 mph100%30.21 "Hg2 mi
11:00 PM
Nov 27
37 °FFog.1 mph100%30.21 "Hg2 mi
10:00 PM39 °FFog.1 mph93%30.21 "Hg2 mi
9:00 PM39 °FFog.1 mph93%30.21 "Hg2 mi
8:00 PM39 °FFog.1 mph93%30.18 "Hg3 mi
7:00 PM43 °FPassing clouds.3 mph87%30.18 "Hg5 mi
6:00 PM45 °FPassing clouds.6 mph81%30.15 "Hg5 mi
5:00 PM46 °FPartly sunny.6 mph76%30.12 "Hg4 mi
4:00 PM48 °FLight rain. Fog.8 mph76%30.12 "Hg3 mi
3:00 PM48 °FLight rain. Fog.8 mph76%30.12 "Hg2 mi
2:00 PM48 °FOvercast.6 mph71%30.09 "Hg2 mi
1:00 PM50 °FPassing clouds.1 mph47%30.09 "HgN/A
12:00 PM48 °FPassing clouds.3 mph58%30.09 "Hg5 mi
11:00 AM48 °FPartly sunny.3 mph54%30.12 "Hg3 mi
10:00 AM46 °FFog.3 mph76%30.12 "Hg1 mi
Weather by CustomWeather, © 2014

See weather overviewHow to use our weather pages